This is the latest recevied weather packets stored in our database for station/object HS3UAA-1. If no packets are shown the sender has not sent any weather packets the latest 10 day(s).
| Time | Temp. | Humidity | Pressure | Rain* | Wind** | Luminosity | Snow |
|---|---|---|---|---|---|---|---|
| 1787746032 | 35° C | 38% | 994 hPa | - | - | 0 W/m² | - |
| 1787745710 | 35° C | 38% | 994 hPa | - | - | 0 W/m² | - |
| 1787745387 | 34.44° C | 38% | 994 hPa | - | - | 0 W/m² | - |
| 1787745066 | 34.44° C | 38% | 994 hPa | - | - | 0 W/m² | - |
| 1787744744 | 34.44° C | 38% | 994 hPa | - | - | 0 W/m² | - |
| 1787744421 | 33.89° C | 38% | 994 hPa | - | - | 0 W/m² | - |
| 1787744099 | 33.89° C | 37% | 994 hPa | - | - | 0 W/m² | - |
| 1787743777 | 33.89° C | 37% | 993 hPa | - | - | 0 W/m² | - |
| 1787743456 | 33.33° C | 37% | 993 hPa | - | - | 0 W/m² | - |
| 1787743133 | 33.33° C | 37% | 993 hPa | - | - | 0 W/m² | - |
| 1787742811 | 33.33° C | 37% | 993 hPa | - | - | 0 W/m² | - |
| 1787742489 | 32.78° C | 37% | 993 hPa | - | - | 0 W/m² | - |
| 1787742167 | 32.78° C | 36% | 993 hPa | - | - | 0 W/m² | - |
| 1787741800 | 32.22° C | 36% | 993 hPa | - | - | 0 W/m² | - |
| 1787741478 | 31.11° C | 37% | 993 hPa | - | - | 0 W/m² | - |
| 1787741156 | 29.44° C | 40% | 993 hPa | - | - | 0 W/m² | - |
| 1787740834 | 29.44° C | 44% | 993 hPa | - | - | 0 W/m² | - |
| 1787740512 | 29.44° C | 41% | 993 hPa | - | - | 0 W/m² | - |
| 1787740190 | 29.44° C | 42% | 993 hPa | - | - | 0 W/m² | - |
| 1787739868 | 29.44° C | 41% | 993 hPa | - | - | 0 W/m² | - |
| 1787739546 | 28.89° C | 41% | 993 hPa | - | - | 0 W/m² | - |
| 1787739224 | 29.44° C | 42% | 993 hPa | - | - | 0 W/m² | - |
| 1787738902 | 28.89° C | 43% | 993 hPa | - | - | 0 W/m² | - |
| 1787738580 | 29.44° C | 40% | 993 hPa | - | - | 0 W/m² | - |
| 1787738258 | 30° C | 41% | 993 hPa | - | - | 0 W/m² | - |
* Rain since midnight (hover to see other rain measurements)
** Current wind speed in m/s (hover to see current wind gust speed)